Terminal Aerodrome Forecast
Issued by NWS Grand Forks, ND

Home | Current Version | Previous Version | Text Only | Print | Product List | Glossary Off
Versions: 1 2 3 4 5 6 7 8 9 10 11 12 13 14 15 16 17 18 19 20 21 22 23 24 25

541
FTUS43 KFGF 190447 AAA
TAFGFK
TAF AMD
KGFK 190447Z 1905/1924 15007KT P6SM BKN020
     FM190600 14007KT P6SM BKN015
     FM190700 14008KT P6SM BKN008
     FM190900 15010KT P6SM BKN003
     FM191000 14011KT P6SM BKN008
     FM191800 16021G29KT P6SM BKN080
     FM192300 15019G27KT P6SM VCTS BKN080CB=

USA.gov is the U.S. government's official web portal to all federal, state and local government web resources and services.